[Date Prev][Date Next][Thread Prev][Thread Next] - [Date Index][Thread Index][Author Index]

2 Line ISS Keps 6-4



ISS
1 25544U 98067A   04156.39700231  .00011209  00000-0  10123-3 0  9242
2 25544  51.6336  30.9339 0005835 188.2227 166.9581 15.68679360316304


----
Via the sarex mailing list at AMSAT.ORG courtesy of AMSAT-NA.
To unsubscribe, send "unsubscribe sarex" to Majordomo@amsat.org



AMSAT Top AMSAT Home